Time,TemperatureF,DewpointF,PressureIn,WindDirection,WindDirectionDegrees,WindSpeedMPH,WindSpeedGustMPH,Humidity,HourlyPrecipIn,Conditions,Clouds,dailyrainin,SoftwareType,DateUTC
2013-03-17 00:05:00,42.6,35.2,29.97,NNW,332,1.0,1.0,75,0.00,,,0.00,Wunderground v.1.15,2013-03-17 04:05:00,
2013-03-17 00:10:00,42.6,35.2,29.97,NNW,329,0.0,1.0,75,0.00,,,0.00,Wunderground v.1.15,2013-03-17 04:10:00,
2013-03-17 00:20:00,42.3,34.9,29.96,NNW,335,1.0,1.0,75,0.00,,,0.00,Wunderground v.1.15,2013-03-17 04:20:00,
2013-03-17 00:25:00,42.3,34.9,29.96,NNW,335,1.0,1.0,75,0.00,,,0.00,Wunderground v.1.15,2013-03-17 04:25:00,
2013-03-17 00:30:00,42.3,34.9,29.96,NNW,335,0.0,0.0,75,0.00,,,0.00,Wunderground v.1.15,2013-03-17 04:30:00,
2013-03-17 00:40:00,42.2,34.8,29.97,NNW,328,0.0,2.0,75,0.00,,,0.00,Wunderground v.1.15,2013-03-17 04:40:00,
2013-03-17 00:45:00,42.1,34.7,29.97,NNW,328,1.0,2.0,75,0.00,,,0.00,Wunderground v.1.15,2013-03-17 04:45:00,
2013-03-17 00:50:00,41.9,34.6,29.98,North,0,1.0,1.0,75,0.00,,,0.00,Wunderground v.1.15,2013-03-17 04:50:00,
2013-03-17 01:00:00,41.8,34.8,29.98,NNW,337,1.0,2.0,76,0.00,,,0.00,Wunderground v.1.15,2013-03-17 05:00:00,
2013-03-17 01:10:00,41.5,34.5,29.98,NNW,340,1.0,3.0,76,0.00,,,0.00,Wunderground v.1.15,2013-03-17 05:10:00,
2013-03-17 01:20:00,41.3,34.3,29.98,North,356,0.0,2.0,76,0.00,,,0.00,Wunderground v.1.15,2013-03-17 05:20:00,
2013-03-17 01:25:00,41.2,34.2,29.98,North,356,0.0,2.0,76,0.00,,,0.00,Wunderground v.1.15,2013-03-17 05:25:00,
2013-03-17 01:30:00,41.2,34.2,29.98,North,352,1.0,1.0,76,0.00,,,0.00,Wunderground v.1.15,2013-03-17 05:30:00,
2013-03-17 01:40:00,40.9,33.9,29.98,NNW,347,1.0,3.0,76,0.00,,,0.00,Wunderground v.1.15,2013-03-17 05:40:00,
2013-03-17 01:50:00,40.8,34.1,29.98,NNW,329,1.0,1.0,77,0.00,,,0.00,Wunderground v.1.15,2013-03-17 05:50:00,
2013-03-17 02:00:00,40.8,34.1,29.98,North,359,1.0,1.0,77,0.00,,,0.00,Wunderground v.1.15,2013-03-17 06:00:00,
2013-03-17 02:05:00,40.6,34.3,29.97,North,359,1.0,1.0,78,0.00,,,0.00,Wunderground v.1.15,2013-03-17 06:05:00,
2013-03-17 02:15:00,40.5,34.2,29.97,NW,326,0.0,3.0,78,0.00,,,0.00,Wunderground v.1.15,2013-03-17 06:15:00,
2013-03-17 02:25:00,40.3,34.0,29.97,NW,319,2.0,2.0,78,0.00,,,0.00,Wunderground v.1.15,2013-03-17 06:25:00,
2013-03-17 02:30:00,40.3,34.0,29.97,NW,309,1.0,1.0,78,0.00,,,0.00,Wunderground v.1.15,2013-03-17 06:30:00,
2013-03-17 02:40:00,40.2,34.2,29.98,North,4,1.0,1.0,79,0.00,,,0.00,Wunderground v.1.15,2013-03-17 06:40:00,
2013-03-17 02:50:00,40.1,34.4,29.98,North,6,1.0,1.0,80,0.00,,,0.00,Wunderground v.1.15,2013-03-17 06:50:00,
2013-03-17 03:00:00,39.9,34.2,29.98,North,6,0.0,1.0,80,0.00,,,0.00,Wunderground v.1.15,2013-03-17 07:00:00,
2013-03-17 03:05:00,39.9,34.2,29.97,NW,320,0.0,4.0,80,0.00,,,0.00,Wunderground v.1.15,2013-03-17 07:05:00,
2013-03-17 03:15:00,39.5,33.8,29.97,North,354,2.0,4.0,80,0.00,,,0.00,Wunderground v.1.15,2013-03-17 07:15:00,
2013-03-17 03:20:00,39.3,33.6,29.98,NNW,328,2.0,2.0,80,0.00,,,0.00,Wunderground v.1.15,2013-03-17 07:20:00,
2013-03-17 03:30:00,39.2,33.5,29.98,NW,313,1.0,2.0,80,0.00,,,0.00,Wunderground v.1.15,2013-03-17 07:30:00,
2013-03-17 03:35:00,39.2,33.9,29.97,NW,315,1.0,2.0,81,0.00,,,0.00,Wunderground v.1.15,2013-03-17 07:35:00,
2013-03-17 03:45:00,39.1,33.8,29.97,NE,37,1.0,1.0,81,0.00,,,0.00,Wunderground v.1.15,2013-03-17 07:45:00,
2013-03-17 03:50:00,38.9,33.3,29.96,NNE,31,1.0,1.0,80,0.00,,,0.00,Wunderground v.1.15,2013-03-17 07:50:00,
2013-03-17 04:00:00,38.8,33.5,29.96,NNE,31,0.0,1.0,81,0.00,,,0.00,Wunderground v.1.15,2013-03-17 08:00:00,
2013-03-17 04:10:00,38.5,33.2,29.95,NE,34,1.0,3.0,81,0.00,,,0.00,Wunderground v.1.15,2013-03-17 08:10:00,
2013-03-17 04:20:00,38.3,33.3,29.95,NE,34,2.0,2.0,82,0.00,,,0.00,Wunderground v.1.15,2013-03-17 08:20:00,
2013-03-17 04:30:00,38.3,33.3,29.95,NNE,32,0.0,0.0,82,0.00,,,0.00,Wunderground v.1.15,2013-03-17 08:30:00,
2013-03-17 04:40:00,38.2,33.2,29.96,NNE,31,1.0,4.0,82,0.00,,,0.00,Wunderground v.1.15,2013-03-17 08:40:00,
2013-03-17 04:50:00,37.9,32.9,29.96,NNE,21,2.0,2.0,82,0.00,,,0.00,Wunderground v.1.15,2013-03-17 08:50:00,
2013-03-17 04:55:00,37.9,32.9,29.96,NNE,21,1.0,2.0,82,0.00,,,0.00,Wunderground v.1.15,2013-03-17 08:55:00,
2013-03-17 05:05:00,37.9,32.6,29.97,NNW,329,1.0,2.0,81,0.00,,,0.00,Wunderground v.1.15,2013-03-17 09:05:00,
2013-03-17 05:10:00,37.8,32.5,29.97,NNW,329,1.0,1.0,81,0.00,,,0.00,Wunderground v.1.15,2013-03-17 09:10:00,
2013-03-17 05:20:00,37.8,32.8,29.99,NW,311,2.0,2.0,82,0.00,,,0.00,Wunderground v.1.15,2013-03-17 09:20:00,
2013-03-17 05:30:00,37.8,32.8,29.99,NW,319,1.0,3.0,82,0.00,,,0.00,Wunderground v.1.15,2013-03-17 09:30:00,
2013-03-17 05:40:00,37.6,32.6,30.00,NW,326,1.0,1.0,82,0.00,,,0.00,Wunderground v.1.15,2013-03-17 09:40:00,
2013-03-17 05:50:00,37.5,32.5,30.00,North,0,1.0,1.0,82,0.00,,,0.00,Wunderground v.1.15,2013-03-17 09:50:00,
2013-03-17 06:00:00,37.5,32.5,30.00,North,0,1.0,3.0,82,0.00,,,0.00,Wunderground v.1.15,2013-03-17 10:00:00,
2013-03-17 06:10:00,37.3,32.3,30.00,North,3,1.0,1.0,82,0.00,,,0.00,Wunderground v.1.15,2013-03-17 10:10:00,
2013-03-17 06:15:00,37.3,32.3,30.00,North,3,1.0,1.0,82,0.00,,,0.00,Wunderground v.1.15,2013-03-17 10:15:00,
2013-03-17 06:20:00,37.3,32.3,30.02,NW,322,1.0,1.0,82,0.00,,,0.00,Wunderground v.1.15,2013-03-17 10:20:00,
2013-03-17 06:30:00,37.3,32.3,30.02,WNW,295,1.0,1.0,82,0.00,,,0.00,Wunderground v.1.15,2013-03-17 10:30:00,
2013-03-17 06:40:00,37.3,32.3,30.05,WNW,289,2.0,2.0,82,0.00,,,0.00,Wunderground v.1.15,2013-03-17 10:40:00,
2013-03-17 06:50:00,37.3,32.3,30.07,WNW,284,1.0,5.0,82,0.00,,,0.00,Wunderground v.1.15,2013-03-17 10:50:00,
2013-03-17 07:00:00,37.2,32.2,30.07,NW,318,2.0,2.0,82,0.00,,,0.00,Wunderground v.1.15,2013-03-17 11:00:00,
2013-03-17 07:05:00,37.0,32.0,30.07,WNW,301,1.0,5.0,82,0.00,,,0.00,Wunderground v.1.15,2013-03-17 11:05:00,
2013-03-17 07:15:00,36.6,32.2,30.07,North,349,1.0,2.0,84,0.00,,,0.01,Wunderground v.1.15,2013-03-17 11:15:00,
2013-03-17 07:20:00,36.3,32.2,30.08,NNW,346,1.0,1.0,85,0.07,,,0.02,Wunderground v.1.15,2013-03-17 11:20:00,
2013-03-17 07:30:00,35.9,32.4,30.08,North,0,1.0,1.0,87,0.06,,,0.03,Wunderground v.1.15,2013-03-17 11:30:00,
2013-03-17 07:40:00,35.6,32.4,30.08,North,359,1.0,1.0,88,0.04,,,0.03,Wunderground v.1.15,2013-03-17 11:40:00,
2013-03-17 07:45:00,35.6,32.4,30.08,North,357,1.0,1.0,88,0.00,,,0.03,Wunderground v.1.15,2013-03-17 11:45:00,
2013-03-17 07:55:00,35.3,32.4,30.10,NNE,27,1.0,1.0,89,0.00,,,0.04,Wunderground v.1.15,2013-03-17 11:55:00,
2013-03-17 08:00:00,35.0,32.4,30.10,NNE,27,0.0,0.0,90,0.00,,,0.04,Wunderground v.1.15,2013-03-17 12:00:00,
2013-03-17 08:10:00,34.6,32.2,30.10,NNE,32,1.0,1.0,91,0.00,,,0.04,Wunderground v.1.15,2013-03-17 12:10:00,
2013-03-17 08:20:00,34.3,31.9,30.10,NNE,32,0.0,0.0,91,0.00,,,0.05,Wunderground v.1.15,2013-03-17 12:20:00,
2013-03-17 08:30:00,34.0,31.9,30.10,NNE,32,1.0,1.0,92,0.00,,,0.05,Wunderground v.1.15,2013-03-17 12:30:00,
2013-03-17 08:40:00,33.8,32.0,30.10,NNE,32,0.0,0.0,93,0.00,,,0.05,Wunderground v.1.15,2013-03-17 12:40:00,
2013-03-17 08:50:00,34.0,32.2,30.11,NNE,32,0.0,0.0,93,0.00,,,0.06,Wunderground v.1.15,2013-03-17 12:50:00,
2013-03-17 09:00:00,34.1,32.6,30.11,NNE,32,0.0,0.0,94,0.00,,,0.06,Wunderground v.1.15,2013-03-17 13:00:00,
2013-03-17 09:05:00,34.3,32.8,30.12,NNE,32,0.0,0.0,94,0.00,,,0.06,Wunderground v.1.15,2013-03-17 13:05:00,
2013-03-17 09:15:00,34.1,32.6,30.12,NNE,32,0.0,0.0,94,0.00,,,0.06,Wunderground v.1.15,2013-03-17 13:15:00,
2013-03-17 09:20:00,34.1,32.6,30.13,NNE,32,0.0,0.0,94,0.00,,,0.06,Wunderground v.1.15,2013-03-17 13:20:00,
2013-03-17 09:30:00,34.0,32.5,30.13,NNE,32,0.0,0.0,94,0.00,,,0.06,Wunderground v.1.15,2013-03-17 13:30:00,
2013-03-17 09:40:00,33.7,32.2,30.13,NNE,32,0.0,0.0,94,0.00,,,0.06,Wunderground v.1.15,2013-03-17 13:40:00,
2013-03-17 09:45:00,33.5,32.0,30.13,NNE,32,0.0,0.0,94,0.00,,,0.06,Wunderground v.1.15,2013-03-17 13:45:00,
2013-03-17 09:55:00,33.4,31.9,30.13,NNE,32,0.0,0.0,94,0.00,,,0.06,Wunderground v.1.15,2013-03-17 13:55:00,
2013-03-17 10:00:00,33.4,31.9,30.13,NNE,32,0.0,0.0,94,0.00,,,0.06,Wunderground v.1.15,2013-03-17 14:00:00,
2013-03-17 10:10:00,33.2,31.9,30.13,NNE,32,0.0,0.0,95,0.00,,,0.06,Wunderground v.1.15,2013-03-17 14:10:00,
2013-03-17 10:20:00,33.2,31.9,30.13,NNE,32,0.0,0.0,95,0.00,,,0.06,Wunderground v.1.15,2013-03-17 14:20:00,
2013-03-17 10:30:00,33.1,31.8,30.13,NNE,32,0.0,0.0,95,0.00,,,0.06,Wunderground v.1.15,2013-03-17 14:30:00,
2013-03-17 10:40:00,33.1,31.8,30.13,NNE,32,0.0,0.0,95,0.00,,,0.07,Wunderground v.1.15,2013-03-17 14:40:00,
2013-03-17 10:45:00,33.1,31.8,30.13,NNE,32,0.0,0.0,95,0.00,,,0.07,Wunderground v.1.15,2013-03-17 14:45:00,
2013-03-17 10:55:00,33.2,31.9,30.12,NNE,32,0.0,0.0,95,0.04,,,0.08,Wunderground v.1.15,2013-03-17 14:55:00,
2013-03-17 11:05:00,33.5,32.2,30.13,NNE,30,0.0,2.0,95,0.04,,,0.08,Wunderground v.1.15,2013-03-17 15:05:00,
2013-03-17 11:10:00,33.5,32.5,30.13,NNE,30,1.0,1.0,96,0.05,,,0.09,Wunderground v.1.15,2013-03-17 15:10:00,
2013-03-17 11:20:00,33.8,32.8,30.13,NNE,30,1.0,1.0,96,0.05,,,0.10,Wunderground v.1.15,2013-03-17 15:20:00,
2013-03-17 11:30:00,33.8,32.8,30.13,NNE,31,1.0,2.0,96,0.05,,,0.10,Wunderground v.1.15,2013-03-17 15:30:00,
2013-03-17 11:40:00,34.0,32.7,30.13,NE,54,1.0,5.0,95,0.04,,,0.11,Wunderground v.1.15,2013-03-17 15:40:00,
2013-03-17 11:50:00,34.1,32.8,30.12,NE,34,3.0,3.0,95,0.04,,,0.12,Wunderground v.1.15,2013-03-17 15:50:00,
2013-03-17 12:00:00,34.4,33.1,30.12,NNE,31,1.0,1.0,95,0.04,,,0.12,Wunderground v.1.15,2013-03-17 16:00:00,
2013-03-17 12:10:00,34.4,32.9,30.12,NE,42,2.0,2.0,94,0.00,,,0.12,Wunderground v.1.15,2013-03-17 16:10:00,
2013-03-17 12:15:00,34.6,33.1,30.12,NE,42,1.0,2.0,94,0.00,,,0.13,Wunderground v.1.15,2013-03-17 16:15:00,
2013-03-17 12:20:00,34.7,33.2,30.13,NE,40,1.0,1.0,94,0.00,,,0.13,Wunderground v.1.15,2013-03-17 16:20:00,
2013-03-17 12:30:00,34.3,32.8,30.13,NE,38,1.0,2.0,94,0.00,,,0.13,Wunderground v.1.15,2013-03-17 16:30:00,
2013-03-17 12:40:00,33.7,31.9,30.14,NE,37,1.0,1.0,93,0.00,,,0.14,Wunderground v.1.15,2013-03-17 16:40:00,
2013-03-17 12:50:00,33.7,32.2,30.13,NE,37,1.0,1.0,94,0.00,,,0.14,Wunderground v.1.15,2013-03-17 16:50:00,
2013-03-17 12:55:00,33.5,32.0,30.13,NE,37,1.0,1.0,94,0.00,,,0.14,Wunderground v.1.15,2013-03-17 16:55:00,
2013-03-17 13:05:00,33.7,32.2,30.13,NE,37,1.0,2.0,94,0.00,,,0.15,Wunderground v.1.15,2013-03-17 17:05:00,
2013-03-17 13:15:00,33.7,32.4,30.13,NE,37,1.0,1.0,95,0.00,,,0.15,Wunderground v.1.15,2013-03-17 17:15:00,
2013-03-17 13:25:00,33.7,32.2,30.13,NE,37,1.0,2.0,94,0.00,,,0.15,Wunderground v.1.15,2013-03-17 17:25:00,
2013-03-17 13:30:00,33.5,32.2,30.13,NE,37,1.0,1.0,95,0.00,,,0.15,Wunderground v.1.15,2013-03-17 17:30:00,
2013-03-17 13:40:00,33.7,32.4,30.13,NE,37,0.0,0.0,95,0.00,,,0.16,Wunderground v.1.15,2013-03-17 17:40:00,
2013-03-17 13:50:00,33.5,32.2,30.12,NE,37,0.0,0.0,95,0.00,,,0.16,Wunderground v.1.15,2013-03-17 17:50:00,
2013-03-17 14:00:00,33.5,32.2,30.12,NE,37,1.0,2.0,95,0.00,,,0.16,Wunderground v.1.15,2013-03-17 18:00:00,
2013-03-17 14:05:00,33.4,32.1,30.13,NNE,27,1.0,4.0,95,0.00,,,0.16,Wunderground v.1.15,2013-03-17 18:05:00,
2013-03-17 14:15:00,33.2,31.9,30.13,NNE,27,1.0,1.0,95,0.00,,,0.16,Wunderground v.1.15,2013-03-17 18:15:00,
2013-03-17 14:25:00,33.1,31.8,30.12,NNE,27,1.0,1.0,95,0.00,,,0.16,Wunderground v.1.15,2013-03-17 18:25:00,
2013-03-17 14:30:00,32.9,31.6,30.12,NNE,27,0.0,0.0,95,0.00,,,0.16,Wunderground v.1.15,2013-03-17 18:30:00,
2013-03-17 14:40:00,32.9,31.6,30.12,NNE,27,0.0,0.0,95,0.00,,,0.16,Wunderground v.1.15,2013-03-17 18:40:00,
2013-03-17 14:50:00,32.8,31.5,30.10,NNE,27,0.0,1.0,95,0.00,,,0.16,Wunderground v.1.15,2013-03-17 18:50:00,
2013-03-17 15:00:00,32.8,31.5,30.10,NNE,27,1.0,1.0,95,0.00,,,0.16,Wunderground v.1.15,2013-03-17 19:00:00,
2013-03-17 15:05:00,32.8,31.5,30.10,NNE,27,0.0,1.0,95,0.00,,,0.16,Wunderground v.1.15,2013-03-17 19:05:00,
2013-03-17 15:15:00,32.9,31.6,30.10,NNE,27,0.0,0.0,95,0.00,,,0.17,Wunderground v.1.15,2013-03-17 19:15:00,
2013-03-17 15:20:00,32.9,31.9,30.10,NNE,27,0.0,0.0,96,0.00,,,0.17,Wunderground v.1.15,2013-03-17 19:20:00,
2013-03-17 15:30:00,32.9,31.9,30.10,NNE,27,0.0,1.0,96,0.00,,,0.17,Wunderground v.1.15,2013-03-17 19:30:00,
2013-03-17 15:40:00,32.9,31.9,30.10,NNE,27,0.0,0.0,96,0.00,,,0.17,Wunderground v.1.15,2013-03-17 19:40:00,
2013-03-17 15:50:00,32.8,31.8,30.10,NNE,27,0.0,0.0,96,0.00,,,0.17,Wunderground v.1.15,2013-03-17 19:50:00,
2013-03-17 16:00:00,32.8,31.8,30.10,NNE,27,1.0,1.0,96,0.00,,,0.17,Wunderground v.1.15,2013-03-17 20:00:00,
2013-03-17 16:05:00,32.9,31.9,30.10,NNE,27,0.0,1.0,96,0.00,,,0.17,Wunderground v.1.15,2013-03-17 20:05:00,
2013-03-17 16:15:00,32.9,31.9,30.10,NNE,24,0.0,2.0,96,0.00,,,0.17,Wunderground v.1.15,2013-03-17 20:15:00,
2013-03-17 16:20:00,32.9,31.9,30.09,NE,34,0.0,0.0,96,0.00,,,0.17,Wunderground v.1.15,2013-03-17 20:20:00,
2013-03-17 16:30:00,32.9,31.9,30.09,NE,34,0.0,0.0,96,0.00,,,0.17,Wunderground v.1.15,2013-03-17 20:30:00,
2013-03-17 16:40:00,33.1,32.1,30.10,NE,34,0.0,0.0,96,0.00,,,0.18,Wunderground v.1.15,2013-03-17 20:40:00,
2013-03-17 16:50:00,33.1,32.1,30.10,NE,34,0.0,0.0,96,0.00,,,0.18,Wunderground v.1.15,2013-03-17 20:50:00,
2013-03-17 17:00:00,33.1,32.1,30.10,NE,34,0.0,0.0,96,0.00,,,0.19,Wunderground v.1.15,2013-03-17 21:00:00,
2013-03-17 17:05:00,33.1,32.1,30.10,NE,34,0.0,0.0,96,0.00,,,0.19,Wunderground v.1.15,2013-03-17 21:05:00,
2013-03-17 17:14:00,33.1,32.1,30.10,NE,34,0.0,0.0,96,0.00,,,0.19,Wunderground v.1.15,2013-03-17 21:14:00,
2013-03-17 17:20:00,33.1,32.1,30.09,NE,34,0.0,0.0,96,0.00,,,0.20,Wunderground v.1.15,2013-03-17 21:20:00,
2013-03-17 17:30:00,33.1,32.1,30.09,NE,34,0.0,0.0,96,0.00,,,0.20,Wunderground v.1.15,2013-03-17 21:30:00,
2013-03-17 17:35:00,33.2,32.2,30.09,NNE,27,0.0,0.0,96,0.00,,,0.20,Wunderground v.1.15,2013-03-17 21:35:00,
2013-03-17 17:40:00,33.2,32.2,30.09,NNE,28,0.0,0.0,96,0.00,,,0.20,Wunderground v.1.15,2013-03-17 21:40:00,
2013-03-17 17:45:00,33.2,32.2,30.09,NNE,28,0.0,0.0,96,0.00,,,0.21,Wunderground v.1.15,2013-03-17 21:45:00,
2013-03-17 17:55:00,33.2,32.2,30.08,NNE,31,1.0,2.0,96,0.00,,,0.21,Wunderground v.1.15,2013-03-17 21:55:00,
2013-03-17 18:05:00,33.2,32.2,30.09,NE,38,2.0,2.0,96,0.00,,,0.21,Wunderground v.1.15,2013-03-17 22:05:00,
2013-03-17 18:10:00,33.4,32.1,30.09,NNE,23,2.0,5.0,95,0.00,,,0.22,Wunderground v.1.15,2013-03-17 22:10:00,
2013-03-17 18:20:00,33.4,32.1,30.08,NNE,31,3.0,6.0,95,0.00,,,0.22,Wunderground v.1.15,2013-03-17 22:20:00,
2013-03-17 18:30:00,33.4,32.1,30.08,NNE,30,4.0,4.0,95,0.00,,,0.23,Wunderground v.1.15,2013-03-17 22:30:00,
2013-03-17 18:40:00,33.5,32.2,30.08,NE,52,2.0,2.0,95,0.06,,,0.24,Wunderground v.1.15,2013-03-17 22:40:00,
2013-03-17 18:50:00,33.5,32.2,30.08,NNE,25,3.0,3.0,95,0.07,,,0.25,Wunderground v.1.15,2013-03-17 22:50:00,
2013-03-17 18:55:00,33.5,32.2,30.08,NNE,27,3.0,3.0,95,0.07,,,0.25,Wunderground v.1.15,2013-03-17 22:55:00,
2013-03-17 19:05:00,33.5,32.2,30.08,NE,34,2.0,5.0,95,0.08,,,0.27,Wunderground v.1.15,2013-03-17 23:05:00,
2013-03-17 19:15:00,33.7,32.4,30.08,ENE,68,4.0,6.0,95,0.08,,,0.28,Wunderground v.1.15,2013-03-17 23:15:00,
2013-03-17 19:25:00,33.7,32.4,30.08,NE,38,3.0,5.0,95,0.06,,,0.29,Wunderground v.1.15,2013-03-17 23:25:00,
2013-03-17 19:30:00,33.7,32.2,30.08,NE,34,4.0,4.0,94,0.06,,,0.29,Wunderground v.1.15,2013-03-17 23:30:00,
2013-03-17 19:40:00,33.7,32.2,30.07,NNE,30,3.0,3.0,94,0.07,,,0.31,Wunderground v.1.15,2013-03-17 23:40:00,
2013-03-17 19:50:00,33.7,32.2,30.07,ENE,71,3.0,3.0,94,0.05,,,0.31,Wunderground v.1.15,2013-03-17 23:50:00,
2013-03-17 20:00:00,33.7,32.4,30.07,ENE,59,2.0,2.0,95,0.05,,,0.32,Wunderground v.1.15,2013-03-18 00:00:00,
2013-03-17 20:10:00,33.7,32.4,30.07,NNE,32,2.0,2.0,95,0.00,,,0.32,Wunderground v.1.15,2013-03-18 00:10:00,
2013-03-17 20:20:00,33.8,32.5,30.06,NE,37,2.0,2.0,95,0.00,,,0.33,Wunderground v.1.15,2013-03-18 00:20:00,
2013-03-17 20:25:00,33.8,32.5,30.06,NNE,18,3.0,3.0,95,0.00,,,0.33,Wunderground v.1.15,2013-03-18 00:25:00,
2013-03-17 20:35:00,33.8,32.3,30.07,NE,45,3.0,6.0,94,0.00,,,0.33,Wunderground v.1.15,2013-03-18 00:35:00,
2013-03-17 20:40:00,34.0,32.5,30.07,NE,45,3.0,3.0,94,0.00,,,0.33,Wunderground v.1.15,2013-03-18 00:40:00,
2013-03-17 20:50:00,34.0,32.5,30.07,NNE,31,1.0,2.0,94,0.00,,,0.34,Wunderground v.1.15,2013-03-18 00:50:00,
2013-03-17 21:00:00,34.0,32.5,30.07,ENE,78,1.0,1.0,94,0.00,,,0.34,Wunderground v.1.15,2013-03-18 01:00:00,
2013-03-17 21:09:00,34.1,32.6,30.07,East,80,1.0,1.0,94,0.00,,,0.35,Wunderground v.1.15,2013-03-18 01:09:00,
2013-03-17 21:14:00,34.1,32.6,30.07,NE,52,2.0,2.0,94,0.00,,,0.35,Wunderground v.1.15,2013-03-18 01:14:00,
2013-03-17 21:20:00,34.1,32.6,30.07,NE,51,2.0,2.0,94,0.00,,,0.35,Wunderground v.1.15,2013-03-18 01:20:00,
2013-03-17 21:25:00,34.1,32.8,30.07,NE,51,2.0,2.0,95,0.00,,,0.35,Wunderground v.1.15,2013-03-18 01:25:00,
2013-03-17 21:35:00,34.1,32.8,30.06,ENE,58,1.0,1.0,95,0.04,,,0.36,Wunderground v.1.15,2013-03-18 01:35:00,
2013-03-17 21:45:00,34.1,32.8,30.06,ENE,58,1.0,2.0,95,0.00,,,0.36,Wunderground v.1.15,2013-03-18 01:45:00,
2013-03-17 21:50:00,34.1,32.8,30.05,ENE,58,1.0,2.0,95,0.00,,,0.37,Wunderground v.1.15,2013-03-18 01:50:00,
2013-03-17 22:00:00,34.1,32.8,30.05,NE,44,2.0,2.0,95,0.00,,,0.37,Wunderground v.1.15,2013-03-18 02:00:00,
2013-03-17 22:10:00,34.3,33.0,30.06,NE,42,2.0,2.0,95,0.00,,,0.38,Wunderground v.1.15,2013-03-18 02:10:00,
2013-03-17 22:20:00,34.3,33.0,30.05,NE,42,2.0,2.0,95,0.00,,,0.38,Wunderground v.1.15,2013-03-18 02:20:00,
2013-03-17 22:25:00,34.3,33.0,30.05,NE,42,2.0,2.0,95,0.05,,,0.39,Wunderground v.1.15,2013-03-18 02:25:00,
2013-03-17 22:35:00,34.3,33.0,30.05,North,0,2.0,3.0,95,0.04,,,0.39,Wunderground v.1.15,2013-03-18 02:35:00,
2013-03-17 22:45:00,34.3,33.0,30.05,NE,45,2.0,6.0,95,0.04,,,0.40,Wunderground v.1.15,2013-03-18 02:45:00,
2013-03-17 22:50:00,34.3,33.0,30.04,NE,45,2.0,2.0,95,0.05,,,0.41,Wunderground v.1.15,2013-03-18 02:50:00,
2013-03-17 23:00:00,34.4,33.1,30.04,NE,45,1.0,1.0,95,0.05,,,0.41,Wunderground v.1.15,2013-03-18 03:00:00,
2013-03-17 23:10:00,34.4,33.1,30.04,NE,45,1.0,1.0,95,0.07,,,0.43,Wunderground v.1.15,2013-03-18 03:10:00,
2013-03-17 23:20:00,34.4,33.4,30.04,NE,45,1.0,1.0,96,0.07,,,0.44,Wunderground v.1.15,2013-03-18 03:20:00,
2013-03-17 23:30:00,34.4,33.4,30.04,NNE,18,1.0,3.0,96,0.09,,,0.45,Wunderground v.1.15,2013-03-18 03:30:00,
2013-03-17 23:35:00,34.4,33.4,30.02,NNE,25,2.0,3.0,96,0.09,,,0.46,Wunderground v.1.15,2013-03-18 03:35:00,
2013-03-17 23:45:00,34.4,33.4,30.02,NNE,27,2.0,3.0,96,0.08,,,0.47,Wunderground v.1.15,2013-03-18 03:45:00,
2013-03-17 23:50:00,34.4,33.4,30.01,NNE,27,2.0,2.0,96,0.07,,,0.48,Wunderground v.1.15,2013-03-18 03:50:00,